Hourly Data Report for October 25, 2013

All times are specified in Local Standard Time (LST). Add 1 hour to adjust for Daylight Saving Time where and when it is observed.

POND INLET A
NUNAVUT

72°41'22.000" N
77°58'08.000" W
61.60 m
2403206
71095
YIO

Download Data

Hourly Data (October 2013)
Hourly Data Report for October 25, 2013
Temp Definition
°C
Dew Point Temp Definition
°C
Rel Hum Definition
%
Wind Dir Definition
10's deg

Wind Spd Definition
km/h
Visibility Definition
km
Stn Press Definition
kPa
Hmdx Definition


Wind Chill Definition


Weather Definition


TIME
00:00 Legend Double Dagger -9.9 -12.7 80 15 15 8.1 99.78   -17 LegendNANA
01:00 Legend Double Dagger -10.3 -12.7 83 16 13 16.1 99.75   -17 LegendNANA
02:00 Legend Double Dagger -10.2 -13.0 80 15 15 16.1 99.73   -17 LegendNANA
03:00 Legend Double Dagger -10.5 -13.3 80 16 15 16.1 99.71   -17 LegendNANA
04:00 Legend Double Dagger -10.5 -13.0 82 15 17 16.1 99.67   -18 LegendNANA
05:00 Legend Double Dagger -10.0 -13.1 78 16 18 16.1 99.64   -17 LegendNANA
06:00 Legend Double Dagger -9.9 -13.0 78 14 15 16.1 99.62   -17 LegendNANA
07:00 Legend Double Dagger -9.8 -12.6 80 14 13 16.1 99.61   -16 LegendNANA
08:00 Legend Double Dagger -9.7 -12.5 80 14 13 16.1 99.59   -16 LegendNANA
09:00 Legend Double Dagger -9.6 -12.3 81 14 13 16.1 99.57   -16 LegendNANA
10:00 Legend Double Dagger -9.9 -12.6 81 13 9 16.1 99.54   -15 LegendNANA
11:00 Legend Double Dagger -10.1 -12.7 82 16 9 16.1 99.51   -15 LegendNANA
12:00 Legend Double Dagger -10.5 -13.2 81 16 17 16.1 99.51   -18 LegendNANA
13:00 Legend Double Dagger -10.4 -13.7 77 15 15 16.1 99.51   -17 LegendNANA
14:00 Legend Double Dagger -10.3 -13.1 80 15 15 16.1 99.51   -17 LegendNANA
15:00 Legend Double Dagger -10.3 -12.8 82 15 15 16.1 99.51   -17 LegendNANA
16:00 Legend Double Dagger -10.1 -12.6 82 16 15 16.1 99.52   -17 LegendNANA
17:00 Legend Double Dagger -10.2 -12.4 84 15 15 16.1 99.54   -17 LegendNANA
18:00 Legend Double Dagger -10.0 -12.3 83 15 15 16.1 99.52   -17 LegendNANA
19:00 Legend Double Dagger -10.3 -12.5 84 16 17 16.1 99.52   -18 LegendNANA
20:00 Legend Double Dagger -9.9 -12.4 82 14 13 16.1 99.51   -16 LegendNANA
21:00 Legend Double Dagger -10.2 -12.3 85 14 13 16.1 99.49   -16 LegendNANA
22:00 Legend Double Dagger -9.8 -12.2 83 14 15 16.1 99.47   -16 LegendNANA
23:00 Legend Double Dagger -9.8 -11.7 86 16 15 16.1 99.46   -16 LegendNANA

Notes on Data Quality.

Legend

  • E = Estimated
  • M = Missing
  • NA = Not Available
  • ‡ = Partner data that is not subject to review by the National Climate Archives
Date modified: